Content
SEND FEEDBACK

Daily
Averages
Monthly
Summary
United States of America

PERU, VERMONT


Home > North America > United States > Vermont
Elevation: 1660 feet     Latitude: 43 14N     Longitude: 072 54W

WEATHER
 
SELECT A DAY
Number of Records: 455,330;   Date Range: 1/1/95 - 9/20/14
 
SHARE

PRINT THIS DATA

[ ← Previous Day ]
WEATHER ALMANAC - FEBRUARY 17, 2014
[ Next Day → ]
[ °C ]   °F
Weather ElementAverageHighLow
Temperature8.1 °F17.6 °F (2:15 pm)-2.2 °F (7:15 am)
Dewpoint-7.1 °F-2.2 °F (1:35 am)-11.2 °F (11:15 am)
Humidity51.9 %78 % (7:35 am)32 % (1:15 pm)
Barometer30.25 in30.33 in (6:35 pm)30.03 in (12:35 am)
Wind Speed6.1 mph13.8 mph (10:55 am)
Wind Gust18.4 mph (10:55 am)
Weather ElementAverage
Visibility10 mi
Wind DirectionSSW (196.9 °)

Weather ElementTotal
Precipitation---
Heating Degree Days57.3 (Base 65)
Averaged from 71 records on February 17, 2014
WEATHER CONDITIONS BREAKOUT
WIND DIRECTION BREAKOUT
WEATHER BY HOUR - FEBRUARY 17, 2014
[ °C ]   °F
Local TimeTemperatureDewpointHumidityBarometerVisibilityWind DirectionWind SpeedGust SpeedPrecipitationEventsConditions
12:35 AM8.6 °F-4.0 °F57 %30.03 in10.0 miNW (310°)3.5 mphClear
12:55 AM8.6 °F-5.8 °F52 %30.04 in10.0 miNW (310°)4.6 mphClear
1:15 AM8.6 °F-5.8 °F52 %30.05 in10.0 miNorth (350°)3.5 mphClear
1:35 AM8.6 °F-2.2 °F62 %30.06 in10.0 miNNW (330°)3.5 mphClear
1:55 AM6.8 °F-7.6 °F52 %30.07 in10.0 miCalmClear
2:15 AM6.8 °F-7.6 °F52 %30.08 in10.0 miCalmClear
2:35 AM6.8 °F-4.0 °F61 %30.09 in10.0 miNNE (20°)3.5 mphClear
2:55 AM5.0 °F-9.4 °F52 %30.09 in10.0 miCalmClear
3:15 AM6.8 °F-5.8 °F56 %30.10 in10.0 miCalmClear
3:35 AM5.0 °F-5.8 °F61 %30.11 in10.0 miWNW (300°)6.9 mphClear
3:55 AM5.0 °F-7.6 °F56 %30.12 in10.0 miNW (320°)3.5 mphClear
4:15 AM5.0 °F-7.6 °F56 %30.14 in10.0 miWNW (300°)4.6 mphClear
4:35 AM3.2 °F-7.6 °F61 %30.15 in10.0 miCalmClear
4:55 AM3.2 °F-5.8 °F66 %30.16 in10.0 miNW (320°)4.6 mphClear
5:15 AM3.2 °F-7.6 °F61 %30.17 in10.0 miWest (280°)4.6 mphClear
5:35 AM3.2 °F-7.6 °F61 %30.18 in10.0 miCalmClear
5:55 AM1.4 °F-9.4 °F61 %30.19 in10.0 miNW (320°)4.6 mphClear
6:15 AM3.2 °F-5.8 °F66 %30.20 in10.0 miNNW (330°)5.8 mphClear
6:35 AM-0.4 °F-7.6 °F72 %30.21 in10.0 miCalmClear
6:55 AM-0.4 °F-7.6 °F72 %30.22 in10.0 miCalmClear
7:15 AM-2.2 °F-9.4 °F71 %30.23 in10.0 miCalmClear
7:35 AM-0.4 °F-5.8 °F78 %30.25 in10.0 miCalmClear
7:55 AM1.4 °F-5.8 °F72 %30.26 in10.0 miNorth (360°)3.5 mphClear
8:15 AM3.2 °F-9.4 °F56 %30.27 in10.0 miNorth (350°)5.8 mphClear
8:35 AM3.2 °F-5.8 °F66 %30.28 in10.0 miNorth (10°)8.1 mphClear
8:55 AM5.0 °F-5.8 °F61 %30.29 in10.0 miNorth (10°)10.4 mphClear
9:15 AM6.8 °F-7.6 °F52 %30.29 in10.0 miNorth (350°)6.9 mphClear
9:35 AM8.6 °F-4.0 °F57 %30.29 in10.0 miNW (320°)6.9 mphClear
9:55 AM8.6 °F-7.6 °F48 %30.30 in10.0 miNNW (330°)6.9 mphClear
10:15 AM10.4 °F-7.6 °F44 %30.30 in10.0 miNNW (330°)11.5 mphClear
10:35 AM10.4 °F-9.4 °F41 %30.31 in10.0 miNW (320°)9.2 mphClear
10:55 AM10.4 °F-9.4 °F41 %30.32 in10.0 miNorth (350°)13.8 mph18.4 mphClear
11:15 AM12.2 °F-11.2 °F34 %30.32 in10.0 miNorth (350°)11.5 mph17.3 mphClear
11:35 AM12.2 °F-9.4 °F38 %30.32 in10.0 miNorth (350°)12.7 mph18.4 mphClear
11:55 AM12.2 °F-9.4 °F38 %30.32 in10.0 miNNW (330°)9.2 mph18.4 mphClear
12:15 PM12.2 °F-11.2 °F34 %30.31 in10.0 miNNW (330°)8.1 mph18.4 mphClear
12:35 PM14.0 °F-9.4 °F35 %30.31 in10.0 miNorth (360°)12.7 mph17.3 mphClear
12:55 PM14.0 °F-7.6 °F38 %30.31 in10.0 miNorth (360°)12.7 mphClear
1:15 PM15.8 °F-9.4 °F32 %30.31 in10.0 miNW (320°)8.1 mphClear
1:35 PM15.8 °F-9.4 °F32 %30.32 in10.0 miNW (320°)11.5 mph17.3 mphClear
1:55 PM15.8 °F-7.6 °F35 %30.32 in10.0 miNNW (340°)11.5 mph16.1 mphClear
2:15 PM17.6 °F-7.6 °F32 %30.32 in10.0 miNW (320°)9.2 mphClear
2:35 PM17.6 °F-7.6 °F32 %30.32 in10.0 miNNW (340°)10.4 mphClear
2:55 PM17.6 °F-7.6 °F32 %30.32 in10.0 miNorth (350°)11.5 mphClear
3:15 PM17.6 °F-7.6 °F32 %30.32 in10.0 miNorth (350°)6.9 mphClear
3:35 PM17.6 °F-7.6 °F32 %30.32 in10.0 miNorth (360°)9.2 mphClear
3:55 PM17.6 °F-7.6 °F32 %30.32 in10.0 miNNW (340°)8.1 mphClear
4:15 PM17.6 °F-7.6 °F32 %30.32 in10.0 miNorth (10°)5.8 mphClear
4:35 PM17.6 °F-5.8 °F35 %30.32 in10.0 miCalmClear
4:55 PM17.6 °F-7.6 °F32 %30.32 in10.0 miNW (310°)4.6 mphClear
5:15 PM17.6 °F-7.6 °F32 %30.31 in10.0 miNNW (330°)3.5 mphClear
5:35 PM15.8 °F-7.6 °F35 %30.32 in10.0 miCalmClear
5:55 PM15.8 °F-5.8 °F38 %30.32 in10.0 miCalmClear
6:15 PM10.4 °F-5.8 °F48 %30.32 in10.0 miCalmClear
6:35 PM10.4 °F-7.6 °F44 %30.33 in10.0 miESE (110°)3.5 mphClear
6:55 PM8.6 °F-2.2 °F62 %30.33 in10.0 miCalmClear
7:15 PM6.8 °F-4.0 °F61 %30.32 in10.0 miEast (90°)3.5 mphClear
7:35 PM6.8 °F-5.8 °F56 %30.33 in10.0 miESE (120°)5.8 mphClear
7:55 PM6.8 °F-5.8 °F56 %30.33 in10.0 miESE (120°)8.1 mphClear
8:15 PM3.2 °F-7.6 °F61 %30.33 in10.0 miSE (140°)8.1 mphClear
8:35 PM6.8 °F-4.0 °F61 %30.33 in10.0 miSE (140°)11.5 mphClear
8:55 PM5.0 °F-4.0 °F66 %30.32 in10.0 miESE (120°)11.5 mphClear
9:15 PM3.2 °F-5.8 °F66 %30.28 in10.0 miEast (100°)9.2 mphClear
9:35 PM3.2 °F-9.4 °F56 %30.27 in10.0 miSE (140°)11.5 mphClear
9:55 PM3.2 °F-5.8 °F66 %30.26 in10.0 miSE (130°)10.4 mphClear
10:15 PM3.2 °F-7.6 °F61 %30.26 in10.0 miSE (130°)10.4 mphClear
10:35 PM3.2 °F-7.6 °F61 %30.27 in10.0 miESE (110°)8.1 mphClear
10:55 PM1.4 °F-9.4 °F61 %30.27 in10.0 miSE (140°)4.6 mphClear
11:15 PM-0.4 °F-7.6 °F72 %30.28 in10.0 miSE (140°)9.2 mphClear
11:35 PM-0.4 °F-7.6 °F72 %30.27 in10.0 miESE (120°)8.1 mphClear
11:55 PM1.4 °F-7.6 °F66 %30.26 in10.0 miSE (140°)8.1 mphClear
Hourly data recorded from KRUT, located miles away from Peru, Vermont







STORIES FROM OUR PARTNERS